Temperature
14 14 14 14 14 14 13 13 13 13 12 12 12 12 12 11 11 11 11 11 11 11 11 11 11 11 11 11 11 11 11 11 11 11 11 11 11 11 11 11 11 11 11
14 14 14 14 13 13 13 13 12 12 12 12 12 11 11 11 11 11 11 11 10 10 11 10 10 10 10 10 10 10 11 11 11 11 11 11 11 10 11 11 11 11 11
14 14 14 13 13 13 13 12 12 12 12 12 11 11 11 11 11 11 10 10 10 10 10 10 10 10 10 10 10 10 10 10 10 10 10 10 10 10 10 10 10 10 10
14 13 13 13 13 13 13 12 12 12 12 11 11 11 11 11 10 10 10 10 10 10 10 10 10 10 10 10 10 10 10 10 10 10 10 10 10 10 10 10 10 10 10
13 13 13 13 12 12 12 12 12 12 11 11 11 11 10 10 10 10 10 10 10 10 10 9 9 9 9 9 9 9 9 9 9 9 9 9 9 9 9 9 10 10 10
13 13 12 12 12 12 12 12 12 11 11 11 11 10 10 10 10 10 10 10 10 10 9 9 9 9 9 9 9 9 9 9 9 9 9 9 9 9 9 9 9 9 9
13 12 12 12 12 12 11 11 11 11 11 11 10 10 10 10 10 9 9 9 9 9 9 9 9 9 9 9 9 9 9 9 9 9 9 9 9 9 9 9 9 9 9
12 12 12 12 11 11 11 11 11 11 11 10 10 10 10 9 9 9 9 9 9 9 9 9 9 9 9 9 9 9 8 8 8 8 9 9 9 9 9 9 9 9 9
12 12 12 11 11 11 11 11 11 10 10 10 10 9 9 9 9 9 9 9 9 9 9 9 9 9 9 9 8 8 8 8 8 8 8 8 8 8 8 8 8 8 8
12 12 11 11 11 11 11 10 10 10 10 10 9 9 9 9 9 9 9 9 9 8 8 8 8 8 8 8 8 8 8 8 8 8 8 8 8 8 8 8 8 8 8
11 11 11 11 10 10 10 10 10 10 9 9 9 9 9 9 9 9 8 8 8 8 8 8 8 8 8 8 8 8 8 8 7 7 7 8 8 8 8 8 8 8 8
11 11 10 10 10 10 10 9 9 9 9 9 9 8 8 8 8 8 8 8 8 8 8 7 7 7 7 8 8 8 8 7 7 7 7 7 7 7 7 7 8 8 7
10 10 10 10 9 9 9 9 9 9 8 8 8 8 8 8 8 7 7 7 7 7 7 7 7 7 7 7 7 7 7 7 7 7 7 7 7 7 7 7 7 7 7
10 10 10 9 9 9 9 9 8 8 8 8 8 8 7 7 7 7 7 7 7 7 7 7 7 7 7 7 7 7 7 7 7 6 6 6 6 6 6 6 6 6 6
9 9 9 9 9 8 8 8 8 8 8 7 7 7 7 7 7 7 7 7 6 6 6 6 6 6 6 6 6 6 6 6 6 6 6 6 6 6 6 6 6 6 6
9 9 8 8 8 8 8 8 7 7 7 7 7 7 7 7 6 6 6 6 6 6 6 6 6 6 6 6 6 6 6 6 6 6 5 5 5 5 5 5 5 5 5
8 8 8 8 7 7 7 7 7 7 7 7 7 7 6 6 6 6 6 6 6 6 5 5 5 5 5 5 5 5 5 5 5 5 5 5 5 5 5 5 5 5 5
8 8 7 7 7 7 7 7 6 6 6 6 6 6 6 6 6 6 6 6 5 5 5 4 4 4 4 5 5 5 5 5 5 5 5 4 4 4 4 4 4 4 4
7 7 7 7 7 6 6 6 6 6 6 6 6 6 5 5 5 5 5 5 5 4 4 4 4 4 4 4 4 4 4 4 4 4 4 4 4 4 4 4 4 4 4
7 7 7 6 6 6 6 6 6 6 5 5 5 5 5 5 5 4 4 4 4 4 4 4 4 4 3 3 3 3 3 3 3 3 3 3 3 3 3 3 3 3 3
6 6 6 6 6 6 6 5 5 5 5 5 5 5 4 4 4 4 4 4 4 4 4 3 3 3 3 3 3 3 3 3 3 3 3 3 3 3 3 3 3 3 3
6 6 6 6 5 5 5 5 5 5 5 4 4 4 4 4 4 4 4 3 3 3 3 3 3 3 3 3 3 3 3 3 3 3 3 2 2 2 3 3 3 3 3
6 5 5 5 5 5 5 5 4 4 4 4 4 4 3 3 3 3 3 3 3 3 3 3 3 2 2 2 2 2 2 2 2 2 2 2 2 2 2 2 2 2 2
5 5 5 5 4 4 4 4 4 4 3 3 3 3 3 3 3 3 3 3 2 2 2 2 2 2 2 2 2 2 2 2 2 2 2 2 2 2 2 2 2 2 1
5 5 4 4 4 4 4 4 3 3 3 3 3 3 2 2 2 2 2 2 2 2 2 2 2 2 2 2 1 1 1 2 2 1 1 1 1 1 1 1 1 1 1
4 4 4 4 3 3 3 3 3 3 2 2 2 2 2 2 2 2 2 2 2 1 1 1 1 1 1 1 1 1 1 1 1 1 1 1 1 1 1 1 1 0 0
Wind_Speed
4 4 4 4 4 4 3 4 4 3 3 3 3 2 3 3 2 2 2 2 2 2 2 1 1 0 0 1 1 1 1 0 1 2 1 1 1 1 1 1 2 2 3
4 4 4 4 4 4 3 3 4 4 4 3 2 2 3 3 3 3 3 2 2 2 3 2 2 1 1 1 1 1 2 2 2 2 2 1 1 1 2 2 1 1 2
4 3 3 3 4 4 4 4 3 4 4 3 3 3 2 2 2 2 2 3 3 3 3 3 2 2 2 2 2 2 2 2 1 2 2 2 1 1 0 1 1 1 1
4 4 3 3 3 3 3 3 4 4 4 4 4 3 3 2 2 2 2 3 3 3 2 3 3 3 3 2 2 2 2 2 2 2 2 2 2 1 1 1 1 1 2
4 4 4 4 4 3 3 3 3 3 3 3 3 3 3 3 3 2 2 3 3 3 3 3 3 4 3 3 3 2 2 2 2 2 2 2 2 1 2 2 2 2 2
5 4 4 3 3 3 3 3 3 3 3 3 3 3 3 3 3 3 2 3 3 3 4 4 4 4 4 4 4 4 4 3 3 3 3 3 3 3 2 2 2 1 2
5 4 4 3 3 4 4 3 3 4 3 3 3 3 3 3 3 3 4 3 4 4 5 4 4 3 3 4 5 5 5 6 5 4 4 4 3 3 2 2 2 3 3
4 4 4 4 3 3 3 3 3 3 3 3 3 3 2 3 3 4 4 4 4 5 5 4 4 3 3 2 2 3 4 5 6 5 5 5 4 4 4 3 3 3 2
3 4 4 4 3 2 2 2 2 2 2 2 2 2 2 2 3 4 3 3 4 5 4 3 2 2 2 2 2 3 3 3 5 5 5 5 5 5 3 1 1 1 2
2 2 2 3 3 3 2 2 2 2 2 2 2 2 2 2 2 2 3 3 4 4 3 2 2 2 2 3 3 3 3 3 3 3 3 4 5 5 5 4 4 3 2
1 1 1 2 3 3 2 2 1 2 2 2 2 2 2 2 2 2 2 2 3 3 2 2 2 2 2 3 3 3 4 3 3 2 2 3 2 3 4 4 4 3 3
2 1 1 1 2 2 2 2 2 2 2 2 2 2 1 2 2 2 3 3 3 2 2 1 1 1 1 2 2 3 3 3 2 2 2 2 2 2 3 4 4 4 4
2 2 2 2 1 2 2 2 2 2 2 2 2 2 1 1 1 2 3 3 4 2 2 2 2 2 3 3 4 4 3 2 2 2 2 2 2 2 2 2 3 2 2
3 2 2 2 2 1 1 1 1 1 2 2 2 2 2 1 1 0 1 1 2 2 1 2 2 3 3 3 3 3 2 2 2 2 2 2 1 1 0 1 1 1 1
2 2 1 1 2 1 1 0 1 1 2 2 2 2 1 1 1 0 0 1 1 1 1 1 1 1 0 0 0 1 1 1 1 1 1 1 1 0 1 0 1 1 1
2 1 1 1 1 1 1 1 2 1 2 2 2 2 1 1 1 1 0 1 2 2 1 0 1 0 1 0 0 0 1 1 1 1 1 1 0 1 1 1 1 1 1
2 2 1 1 1 1 2 2 1 1 0 1 1 1 2 2 2 1 0 0 1 1 0 0 0 0 0 0 0 0 1 1 1 0 0 1 1 1 1 1 1 1 1
2 2 2 1 1 2 2 2 2 2 1 0 1 2 2 2 2 1 1 1 1 1 0 0 0 1 1 1 1 1 1 1 1 1 1 0 0 1 1 1 1 1 1
1 2 2 2 2 2 2 1 1 1 2 2 2 1 2 2 2 1 1 1 1 0 0 0 0 0 0 1 1 1 1 1 1 1 1 1 0 0 1 1 1 1 1
1 2 2 2 2 2 1 1 1 1 2 2 2 2 2 2 2 1 1 0 0 0 0 0 0 1 1 1 1 1 1 1 1 1 1 1 1 0 1 1 1 1 1
1 2 3 2 1 1 1 1 1 2 2 2 1 1 2 2 2 1 1 1 0 0 0 1 0 0 0 1 1 1 1 1 1 1 1 1 1 1 1 1 1 1 1
2 2 2 2 2 2 1 1 2 2 2 2 1 1 2 1 1 1 0 0 1 1 1 1 1 0 0 1 0 0 0 1 1 1 1 1 1 1 1 1 1 1 1
2 2 2 2 2 2 2 2 2 2 2 2 2 1 2 1 1 1 1 1 1 1 1 1 1 1 1 1 1 1 0 1 1 1 1 0 0 1 1 0 1 1 1
2 2 2 3 2 2 2 2 3 2 2 2 2 2 1 1 1 1 1 1 1 1 1 1 2 1 1 1 1 1 1 1 1 1 1 0 0 1 1 0 0 0 1
2 2 2 3 2 2 2 3 3 2 2 2 2 2 2 2 2 2 2 2 1 1 2 2 1 1 2 3 3 3 4 4 3 3 2 1 0 1 1 1 0 0 1
2 2 2 2 2 2 3 3 2 2 2 2 2 2 2 2 2 2 2 2 2 2 2 2 2 3 3 3 4 4 5 5 5 5 3 2 1 1 1 1 1 0 1
Wind_Direction
189 193 190 192 189 181 190 181 168 170 179 196 193 187 184 183 176 168 199 206 218 228 245 246 271 265 263 278 282 298 296 259 261 287 303 304 90 150 148 221 196 189 201
186 189 189 185 179 185 195 180 173 180 192 196 191 198 201 193 185 184 208 220 221 230 237 224 232 248 251 261 262 267 263 247 216 265 290 292 269 210 182 193 189 214 205
174 179 178 178 188 197 195 185 185 187 193 195 205 210 213 205 203 207 214 230 226 224 226 225 225 222 242 242 241 252 257 264 235 245 271 276 267 234 186 264 205 214 259
161 168 175 184 191 198 191 188 192 190 194 201 202 206 209 219 224 229 223 237 248 246 235 231 221 218 220 233 239 245 247 249 251 247 258 258 251 257 172 233 266 258 254
163 172 186 191 188 189 193 199 196 192 202 200 200 205 213 219 228 225 236 247 246 251 255 253 234 217 217 226 236 226 223 232 239 234 245 255 266 261 237 234 237 253 261
170 183 187 188 187 189 192 203 200 197 207 199 206 209 224 242 236 238 251 258 256 249 254 257 246 223 235 240 241 232 217 214 221 225 237 236 245 241 245 249 224 234 264
178 181 184 187 192 195 202 196 201 203 209 210 215 213 225 233 229 247 255 254 252 251 247 249 259 239 223 218 237 237 238 238 232 223 225 237 242 239 227 247 235 223 240
181 177 183 192 195 195 185 186 204 211 208 213 219 218 222 233 233 253 265 259 257 259 251 242 239 240 237 219 219 231 234 234 235 234 229 237 233 219 211 224 241 243 274
195 190 189 186 184 185 184 200 213 215 213 205 196 198 218 246 241 247 248 250 258 263 261 248 235 241 245 215 216 236 248 258 249 239 242 242 248 245 224 204 245 233 259
201 195 184 179 173 181 200 219 215 202 209 191 188 197 209 231 240 250 247 251 257 261 258 255 253 255 243 215 223 230 239 254 261 260 261 258 247 239 231 208 204 213 233
173 174 176 172 172 182 202 214 199 192 197 190 206 224 214 221 235 266 266 255 261 268 266 264 268 250 227 230 236 230 247 262 253 255 260 254 240 222 217 217 209 203 215
134 163 176 180 184 185 176 199 197 183 204 207 212 240 233 213 219 262 268 262 286 272 276 284 278 279 308 303 275 268 269 277 249 245 250 246 243 240 226 216 221 225 225
152 170 178 179 180 184 176 197 200 188 216 216 210 225 247 228 204 227 268 272 286 279 262 283 283 281 284 284 277 275 266 254 236 237 249 251 247 238 215 210 221 220 250
166 175 185 182 179 162 162 189 180 177 221 219 224 226 228 206 184 185 254 280 287 297 309 317 300 273 263 254 272 277 258 231 210 217 234 258 272 280 249 202 203 197 230
165 166 175 150 140 141 125 78 163 183 216 213 226 231 214 219 232 124 184 290 307 283 308 322 314 307 297 233 263 271 278 290 260 256 217 237 255 174 211 233 202 207 220
163 155 144 130 144 164 145 80 42 171 181 191 198 211 219 184 156 104 56 15 348 332 358 318 284 240 181 179 222 291 277 267 261 268 227 229 205 170 198 211 197 206 223
172 160 155 165 183 195 193 177 181 342 68 192 166 161 186 182 165 126 78 31 343 349 12 271 271 324 43 71 45 349 312 321 346 344 245 222 213 197 196 213 217 239 240
170 163 166 188 204 219 222 206 192 191 175 218 167 154 156 157 148 119 84 72 16 2 151 227 13 24 27 18 16 19 16 11 9 353 337 279 218 205 208 225 212 216 232
189 190 183 193 208 226 217 197 212 203 163 148 127 126 162 148 134 142 131 140 165 136 94 24 74 71 30 11 20 27 37 37 360 355 355 350 281 222 210 213 223 234 230
192 193 187 192 204 207 192 177 200 179 157 145 142 147 143 128 125 117 111 140 203 106 83 73 62 58 36 30 37 37 35 30 16 5 345 346 333 290 209 187 202 216 232
166 183 186 188 189 178 169 170 179 162 139 127 132 127 130 146 150 147 149 164 188 164 102 93 66 83 59 23 26 29 29 21 0 347 349 359 358 319 274 209 218 222 190
161 174 170 166 160 155 162 165 156 143 125 112 103 112 114 122 146 149 162 178 170 142 106 124 126 137 194 201 148 99 38 6 347 337 335 334 333 315 268 211 205 201 175
159 157 149 143 141 150 159 148 136 128 121 118 115 110 119 128 150 162 158 143 127 110 106 103 102 67 49 59 60 58 82 296 296 316 325 325 337 321 303 215 194 183 201
148 151 143 134 131 135 137 128 121 119 121 118 112 106 99 95 85 77 77 78 100 105 109 109 105 91 71 76 65 27 15 357 335 335 348 326 336 332 343 8 109 175 194
139 140 132 125 129 132 127 120 119 119 117 105 93 87 79 64 51 56 57 43 37 64 74 83 79 70 72 67 61 56 41 28 16 4 355 10 27 4 8 15 18 187 192
129 129 124 122 126 126 125 123 120 114 111 104 95 88 83 72 58 55 54 46 41 47 57 59 53 56 66 63 65 62 47 38 34 25 13 16 42 39 23 1 330 236 186
Height
1502 1504 1505 1507 1508 1509 1510 1511 1512 1513 1513 1514 1514 1515 1515 1516 1516 1516 1517 1517 1517 1517 1518 1518 1519 1519 1519 1519 1519 1520 1520 1521 1520 1520 1519 1519 1519 1519 1519 1518 1518 1518 1518
1499 1501 1502 1504 1505 1506 1507 1508 1509 1510 1510 1511 1512 1512 1513 1513 1514 1514 1514 1515 1515 1515 1515 1516 1516 1516 1516 1517 1517 1517 1517 1518 1518 1517 1517 1517 1517 1517 1516 1516 1516 1516 1516
1497 1498 1500 1501 1502 1503 1504 1505 1506 1507 1508 1509 1509 1510 1510 1510 1511 1511 1511 1512 1512 1512 1512 1513 1513 1513 1513 1513 1514 1514 1514 1515 1515 1515 1514 1514 1515 1515 1514 1514 1514 1514 1514
1494 1495 1496 1497 1499 1500 1501 1502 1503 1504 1505 1506 1506 1507 1507 1508 1508 1508 1508 1508 1508 1509 1509 1510 1510 1510 1510 1510 1510 1510 1511 1511 1511 1512 1511 1511 1512 1512 1512 1512 1511 1512 1512
1491 1492 1493 1495 1496 1497 1498 1499 1500 1501 1502 1503 1503 1503 1504 1504 1504 1504 1505 1505 1505 1505 1506 1506 1506 1506 1506 1507 1507 1507 1508 1508 1508 1508 1508 1508 1508 1509 1509 1509 1509 1509 1509
1489 1490 1491 1492 1493 1494 1495 1496 1497 1498 1499 1499 1500 1500 1500 1501 1501 1501 1501 1501 1501 1502 1502 1502 1502 1503 1503 1503 1503 1504 1504 1504 1504 1504 1504 1505 1505 1505 1506 1506 1506 1506 1506
1486 1487 1488 1489 1490 1491 1492 1492 1493 1494 1495 1496 1496 1496 1496 1497 1497 1497 1497 1497 1498 1498 1498 1498 1498 1498 1499 1499 1499 1499 1500 1500 1501 1501 1501 1501 1501 1502 1502 1503 1503 1503 1503
1484 1484 1485 1486 1486 1487 1488 1489 1490 1490 1491 1492 1492 1492 1493 1493 1493 1493 1493 1493 1493 1494 1494 1494 1494 1494 1494 1494 1494 1495 1495 1496 1496 1497 1497 1497 1498 1499 1499 1500 1500 1500 1500
1481 1481 1482 1482 1483 1484 1484 1485 1486 1487 1487 1487 1488 1488 1488 1488 1489 1489 1489 1489 1489 1489 1490 1490 1490 1490 1490 1490 1491 1491 1491 1491 1492 1493 1494 1494 1494 1495 1495 1496 1496 1496 1496
1477 1478 1479 1480 1480 1480 1481 1482 1483 1483 1483 1484 1484 1485 1485 1484 1485 1485 1485 1485 1485 1485 1485 1486 1486 1486 1486 1486 1487 1487 1487 1487 1488 1488 1489 1490 1490 1490 1491 1492 1492 1492 1492
1474 1475 1476 1477 1477 1477 1478 1479 1479 1479 1480 1480 1481 1481 1481 1481 1481 1481 1481 1481 1481 1480 1480 1481 1481 1482 1482 1483 1483 1483 1483 1484 1484 1484 1485 1485 1486 1486 1487 1487 1488 1489 1489
1471 1472 1472 1473 1474 1474 1475 1475 1476 1476 1476 1476 1476 1477 1477 1477 1477 1477 1477 1477 1477 1476 1476 1476 1477 1478 1478 1479 1479 1479 1480 1480 1480 1481 1481 1481 1481 1482 1483 1484 1485 1485 1486
1468 1469 1469 1470 1471 1471 1471 1472 1472 1473 1473 1472 1473 1473 1473 1473 1473 1473 1473 1473 1472 1472 1472 1472 1473 1473 1473 1474 1475 1475 1476 1476 1476 1476 1477 1477 1478 1478 1479 1480 1481 1481 1482
1465 1466 1466 1467 1467 1468 1468 1469 1469 1469 1469 1469 1470 1469 1469 1469 1470 1470 1470 1469 1469 1469 1468 1468 1469 1469 1469 1469 1470 1471 1472 1472 1472 1473 1473 1474 1474 1474 1475 1476 1477 1478 1478
1462 1463 1464 1464 1465 1465 1465 1466 1466 1467 1467 1466 1467 1467 1466 1466 1466 1467 1467 1466 1466 1466 1465 1465 1465 1464 1465 1465 1467 1468 1468 1469 1469 1469 1470 1470 1470 1471 1472 1473 1474 1474 1475
1460 1460 1461 1461 1462 1462 1462 1463 1463 1464 1464 1464 1465 1465 1464 1464 1464 1464 1464 1464 1464 1463 1463 1462 1462 1462 1462 1463 1464 1465 1465 1465 1465 1466 1467 1467 1467 1468 1468 1469 1470 1471 1471
1457 1458 1458 1459 1459 1460 1459 1460 1460 1461 1461 1461 1461 1461 1461 1461 1461 1462 1461 1461 1461 1461 1460 1460 1460 1460 1461 1461 1462 1462 1462 1463 1463 1463 1463 1464 1465 1465 1466 1466 1467 1468 1468
1455 1455 1456 1456 1457 1457 1457 1457 1458 1458 1458 1457 1458 1459 1459 1459 1459 1459 1459 1459 1458 1458 1458 1458 1458 1458 1459 1459 1459 1459 1460 1460 1460 1461 1461 1461 1462 1463 1463 1463 1464 1465 1465
1452 1453 1453 1454 1454 1455 1455 1456 1456 1456 1456 1455 1456 1456 1457 1456 1457 1457 1457 1456 1456 1456 1456 1456 1456 1456 1457 1457 1457 1457 1457 1457 1458 1458 1458 1458 1459 1460 1460 1461 1461 1462 1462
1450 1450 1451 1451 1452 1453 1453 1453 1454 1454 1454 1453 1454 1454 1454 1454 1454 1454 1455 1455 1455 1455 1455 1455 1455 1455 1455 1455 1455 1455 1455 1455 1455 1455 1456 1456 1456 1457 1457 1457 1458 1459 1459
1447 1447 1448 1449 1449 1450 1451 1451 1452 1452 1451 1451 1452 1452 1453 1453 1452 1453 1453 1453 1453 1453 1453 1454 1453 1453 1454 1453 1453 1453 1453 1452 1453 1453 1453 1453 1454 1454 1454 1455 1455 1456 1456
1444 1445 1445 1446 1447 1448 1448 1449 1449 1449 1449 1450 1450 1451 1451 1451 1451 1451 1451 1451 1451 1452 1452 1452 1452 1452 1452 1452 1451 1451 1451 1451 1450 1450 1450 1451 1451 1451 1452 1452 1452 1453 1454
1441 1442 1443 1444 1445 1445 1446 1446 1447 1447 1447 1448 1448 1449 1449 1449 1449 1449 1449 1449 1449 1450 1450 1450 1450 1450 1450 1450 1450 1450 1449 1449 1449 1449 1448 1448 1448 1448 1449 1449 1450 1450 1451
1439 1440 1441 1442 1443 1443 1443 1444 1444 1445 1446 1446 1447 1447 1448 1448 1447 1447 1447 1447 1448 1448 1448 1448 1448 1448 1448 1448 1448 1447 1447 1447 1447 1447 1447 1446 1446 1446 1447 1447 1448 1448 1449
1438 1439 1439 1440 1441 1441 1442 1442 1443 1444 1444 1445 1445 1445 1446 1446 1445 1445 1445 1446 1446 1446 1446 1446 1446 1446 1446 1445 1445 1445 1445 1445 1445 1445 1445 1444 1444 1445 1445 1445 1446 1446 1446
1436 1437 1438 1438 1439 1440 1440 1441 1441 1442 1442 1443 1443 1443 1443 1443 1443 1444 1444 1444 1444 1444 1443 1443 1443 1443 1443 1443 1443 1442 1443 1443 1443 1443 1443 1442 1442 1442 1443 1443 1443 1443 1444